This is the latest recevied weather packets stored in our database for station/object OE-11399. If no packets are shown the sender has not sent any weather packets the latest 10 day(s).
| Time | Temp. | Humidity | Pressure | Rain* | Wind** | Luminosity | Snow |
|---|---|---|---|---|---|---|---|
| 1787829100 | 25° C | 50% | 855.5 hPa | 0 mm | - | 763 W/m² | - |
| 1787828727 | 24.44° C | 53% | 855.6 hPa | 0 mm | - | 785 W/m² | - |
| 1787828127 | 23.89° C | 55% | 855.5 hPa | 0 mm | - | 800 W/m² | - |
| 1787827299 | 23.33° C | 56% | 855.7 hPa | 0 mm | - | 800 W/m² | - |
| 1787826926 | 22.78° C | 59% | 855.5 hPa | 0 mm | - | 822 W/m² | - |
| 1787826327 | 22.78° C | 60% | 855.4 hPa | 0 mm | - | 741 W/m² | - |
| 1787825500 | 22.22° C | 64% | 855.2 hPa | 0 mm | - | 374 W/m² | - |
| 1787825127 | 21.67° C | 64% | 855.1 hPa | 0 mm | - | 536 W/m² | - |
| 1787824527 | 21.67° C | 66% | 855.3 hPa | 0 mm | - | 565 W/m² | - |
| 1787823700 | 21.11° C | 66% | 855.2 hPa | 0 mm | - | 492 W/m² | - |
| 1787823327 | 21.11° C | 68% | 855.3 hPa | 0 mm | - | 506 W/m² | - |
| 1787822726 | 20.56° C | 67% | 855.4 hPa | 0 mm | - | 389 W/m² | - |
| 1787821900 | 20.56° C | 70% | 855.4 hPa | 0 mm | - | 565 W/m² | - |
| 1787821526 | 20° C | 71% | 855.3 hPa | 0 mm | - | 514 W/m² | - |
| 1787820927 | 19.44° C | 74% | 855.2 hPa | 0 mm | - | 572 W/m² | - |
| 1787820100 | 19.44° C | 74% | 855.2 hPa | 0 mm | - | 580 W/m² | - |
| 1787819727 | 18.89° C | 78% | 855.1 hPa | 0 mm | - | 565 W/m² | - |
| 1787819127 | 18.33° C | 79% | 855.1 hPa | 0 mm | - | 521 W/m² | - |
| 1787818300 | 17.78° C | 80% | 855.2 hPa | 0 mm | - | 484 W/m² | - |
| 1787817926 | 17.22° C | 83% | 855.2 hPa | 0 mm | - | 455 W/m² | - |
| 1787817326 | 16.67° C | 85% | 855 hPa | 0 mm | - | 338 W/m² | - |
| 1787816499 | 16.67° C | 86% | 855 hPa | 0 mm | - | 426 W/m² | - |
| 1787816126 | 16.67° C | 86% | 855 hPa | 0 mm | - | 323 W/m² | - |
| 1787814700 | 15.56° C | 89% | 854.8 hPa | 0 mm | - | 198 W/m² | - |
| 1787813727 | 15.56° C | 89% | 854.8 hPa | 0 mm | - | 176 W/m² | - |
* Rain latest hour (hover to see other rain measurements)
** Current wind speed in m/s (hover to see current wind gust speed)